Terminal Aerodrome Forecast
Issued by NWS Pittsburgh, PA

Current Version | Previous Version | Graphics & Text | Print | Product List | Glossary On
Versions: 1 2 3 4 5 6 7 8 9 10 11 12 13 14 15 16 17 18 19 20 21 22 23 24 25 26 27 28 29 30
000
FTUS41 KPBZ 011138
TAFPIT
TAF
KPIT 011138Z 0112/0218 32009KT 6SM BR OVC008
     FM011500 32006KT P6SM BKN012
     FM011700 35005KT P6SM BKN017
     FM012100 36006KT P6SM BKN025=

USA.gov is the U.S. government's official web portal to all federal, state and local government web resources and services.